Regional Weather Roundup
Issued by NWS

Home | Current Version | Previous Version | Text Only | Print | Product List | Glossary On
Versions: 1 2 3 4 5 6 7 8 9 10 11 12 13 14 15 16 17 18 19 20 21 22 23 24 25 26 27
000
ASUS44 KJAN 261210
RWRMS

MISSISSIPPI HOURLY WEATHER ROUNDUP
NATIONAL WEATHER SERVICE JACKSON MS
700 AM CDT MON JUN 26 2017

NOTE: "FAIR: INDICATES FEW OR NO CLOUDS BELOW 12,000 FEET WITH NO
SIGNIFICANT WEATHER AND/OR OBSTRUCTIONS TO VISIBILITY.

MSZ001>002-007>008-010>013-018>021-025>028-034>036-261300-
NORTHWEST MISSISSIPPI

CITY           SKY/WX    TMP DP  RH WIND       PRES   REMARKS
BATESVILLE     FAIR      61  60  96 CALM      30.20S
CLARKSDALE       N/A     68  68 100 CALM      30.19S
CLEVELAND        N/A     63  63 100 CALM      30.19S
GREENWOOD      SUNNY     64  62  93 CALM      30.19S
6HR MIN TEMP:  60; 6HR MAX TEMP:  65;

GREENVILLE     MOSUNNY   65  64  97 CALM      30.18S
6HR MIN TEMP:  61; 6HR MAX TEMP:  67; 6HR PCP: TRACE;

OLIVE BRANCH   PTSUNNY  N/A N/A N/A CALM      30.20
OXFORD         FAIR      61  59  94 CALM      30.22S
TUNICA           N/A     66  63  88 CALM      30.20S
WINONA         FAIR      60  60 100 CALM      30.20R
$$

MSZ003>006-009-014>017-022>024-029>033-037>039-261300-
NORTHEAST MISSISSIPPI

CITY           SKY/WX    TMP DP  RH WIND       PRES   REMARKS
COLUMBUS AFB   FOG       62  62  99 N5        30.19R VSB<1/4
6HR MIN TEMP:  59; 6HR MAX TEMP:  62;

CORINTH        FAIR      61  59  94 CALM      30.20S
GOLDN TRIANGLE SUNNY     63  57  82 CALM      30.16R
STARKVILLE     FAIR      61  61 100 CALM      30.21R
TUPELO         SUNNY     64  59  83 CALM      30.20R
6HR MIN TEMP:  59; 6HR MAX TEMP:  64;

$$

MSZ040-058-261300-
CENTRAL MISSISSIPPI

CITY           SKY/WX    TMP DP  RH WIND       PRES   REMARKS
JACKSON INTL   SUNNY     66  62  87 CALM      30.18R
6HR MIN TEMP:  62; 6HR MAX TEMP:  67;

JACKSON HAWKNS SUNNY     65  62  90 CALM      30.18S
6HR MIN TEMP:  63; 6HR MAX TEMP:  67;

MADISON        FAIR      61  61 100 CALM      30.18R
MERIDIAN KEY   CLOUDY    65  63  93 N5        30.18R
6HR MIN TEMP:  62; 6HR MAX TEMP:  66;

MERIDIAN NAS   MOSUNNY   63  58  83 NW3       30.18S
6HR MIN TEMP:  61; 6HR MAX TEMP:  66;

RAYMOND        FAIR      63  63 100 MISG      30.18R FOG
VICKSBURG VKS  SUNNY     64  64 100 CALM      30.14S
$$

MSZ059>079-261300-
SOUTH MISSISSIPPI

CITY           SKY/WX    TMP DP  RH WIND       PRES   REMARKS
COLUMBIA       FAIR      64  63  94 CALM      30.17F
HATTIESBURG    CLOUDY    67  62  84 N3        30.16R
6HR MIN TEMP:  64; 6HR MAX TEMP:  68;

LAUREL           N/A     66  64  95 CALM      30.17R
MCCOMB         CLOUDY    67  58  72 VRB3      30.14F
6HR MIN TEMP:  66; 6HR MAX TEMP:  70;

NATCHEZ        MOSUNNY   65  62  90 CALM      30.16R
6HR MIN TEMP:  64; 6HR MAX TEMP:  70;

PINE BELT      CLOUDY    64  59  82 NE6       30.17S
6HR MIN TEMP:  63; 6HR MAX TEMP:  64;

$$

MSZ080>082-261300-
COASTAL MISSISSIPPI

CITY           SKY/WX    TMP DP  RH WIND       PRES   REMARKS
BAY ST LOUIS   MOSUNNY   70  64  83 CALM      30.12
BILOXI         MOSUNNY   70  65  83 NE8       30.12R
6HR MIN TEMP:  70; 6HR MAX TEMP:  74;

PASCAGOULA     MOSUNNY   70  65  84 N6        30.12S
6HR MIN TEMP:  69; 6HR MAX TEMP:  73;

GULFPORT       SUNNY     72  66  81 NE7       30.11S
6HR MIN TEMP:  70; 6HR MAX TEMP:  75;

$$

LAZ007>009-015>016-023>026-261300-
NORTHEAST LOUISIANA

CITY           SKY/WX    TMP DP  RH WIND       PRES   REMARKS
BASTROP        FAIR      63  62  98 CALM      30.18S
TALLULAH/VBURG SUNNY     68  64  87 NE6       30.17S
6HR MIN TEMP:  63; 6HR MAX TEMP:  68;

VIDALIA        FAIR      67  64  89 CALM      30.15R
$$




USA.gov is the U.S. government's official web portal to all federal, state and local government web resources and services.